Tillbaka till svenska Fidonet
English   Information   Debug  
FILM   0/18
FNEWS_PUBLISH   4751
FN_SYSOP   42030
FN_SYSOP_OLD1   71952
FTP_FIDO   0/2
FTSC_PUBLIC   0/13899
FUNNY   2639/4886
GENEALOGY.EUR   0/71
GET_INFO   105
GOLDED   0/408
HAM   4896/16388
HOLYSMOKE   0/6791
HOT_SITES   0/1
HTMLEDIT   0/71
HUB203   466
HUB_100   264
HUB_400   39
HUMOR   0/29
IC   0/2851
INTERNET   0/424
INTERUSER   0/3
IP_CONNECT   719
JAMNNTPD   0/233
JAMTLAND   0/47
KATTY_KORNER   0/41
LAN   0/16
LINUX-USER   0/19
LINUXHELP   0/1155
LINUX   0/22267
LINUX_BBS   0/957
mail   18.68
mail_fore_ok   249
MENSA   0/341
MODERATOR   0/102
MONTE   0/992
MOSCOW_OKLAHOMA   0/1245
MUFFIN   691/783
MUSIC   0/321
N203_STAT   938
N203_SYSCHAT   313
NET203   321
NET204   69
NET_DEV   0/10
NORD.ADMIN   0/101
NORD.CHAT   0/2572
NORD.FIDONET   189
NORD.HARDWARE   0/28
NORD.KULTUR   0/114
NORD.PROG   0/32
NORD.SOFTWARE   0/88
NORD.TEKNIK   0/58
NORD   0/453
OCCULT_CHAT   0/93
OS2BBS   0/787
OS2DOSBBS   0/580
OS2HW   0/42
OS2INET   0/37
OS2LAN   0/134
OS2PROG   0/36
OS2REXX   0/113
OS2USER-L   207
OS2   0/4806
OSDEBATE   0/18996
PASCAL   0/490
PERL   0/457
PHP   0/45
POINTS   0/405
POLITICS   0/29554
POL_INC   0/14731
PSION   103
R20_ADMIN   1132
R20_AMATORRADIO   0/2
R20_BEST_OF_FIDONET   14
R20_CHAT   0/893
R20_DEPP   0/3
R20_DEV   399
R20_ECHO2   1668
R20_ECHOPRES   0/35
R20_ESTAT   0/719
R20_FIDONETPROG...
...RAM.MYPOINT
  0/2
R20_FIDONETPROGRAM   0/22
R20_FIDONET   0/248
R20_FILEFIND   0/24
R20_FILEFOUND   0/22
R20_HIFI   0/3
R20_INFO2   3559
R20_INTERNET   0/12940
R20_INTRESSE   0/60
R20_INTR_KOM   0/99
R20_KANDIDAT.CHAT   42
R20_KANDIDAT   28
R20_KOM_DEV   112
R20_KONTROLL   0/13360
R20_KORSET   0/18
R20_LOKALTRAFIK   0/24
R20_MODERATOR   0/1852
R20_NC   76
R20_NET200   245
R20_NETWORK.OTH...
...ERNETS
  0/13
R20_OPERATIVSYS...
...TEM.LINUX
  0/44
R20_PROGRAMVAROR   0/1
R20_REC2NEC   534
R20_SFOSM   0/341
R20_SF   0/108
R20_SPRAK.ENGLISH   0/1
R20_SQUISH   107
R20_TEST   2
R20_WORST_OF_FIDONET   20
RAR   0/9
RA_MULTI   106
RA_UTIL   0/162
REGCON.EUR   0/2066
REGCON   0/13
SCIENCE   0/1206
SF   0/239
SHAREWARE_SUPPORT   0/5146
SHAREWRE   0/14
SIMPSONS   0/169
STATS_OLD1   0/2539.065
STATS_OLD2   0/2530
STATS_OLD3   0/2395.095
STATS_OLD4   0/1692.25
SURVIVOR   0/495
SYSOPS_CORNER   0/3
SYSOP   0/84
TAGLINES   0/112
TEAMOS2   0/4530
TECH   0/2617
TEST.444   0/105
TRAPDOOR   0/19
TREK   0/755
TUB   0/290
UFO   0/40
UNIX   0/1316
USA_EURLINK   0/102
USR_MODEMS   0/1
VATICAN   0/2740
VIETNAM_VETS   0/14
VIRUS   0/378
VIRUS_INFO   0/201
VISUAL_BASIC   0/473
WHITEHOUSE   0/5187
WIN2000   0/101
WIN32   0/30
WIN95   0/4291
WIN95_OLD1   0/70272
WINDOWS   0/1517
WWB_SYSOP   0/419
WWB_TECH   0/810
ZCC-PUBLIC   0/1
ZEC   4

 
4DOS   0/134
ABORTION   0/7
ALASKA_CHAT   0/506
ALLFIX_FILE   0/1313
ALLFIX_FILE_OLD1   0/7997
ALT_DOS   0/152
AMATEUR_RADIO   0/1039
AMIGASALE   0/14
AMIGA   0/331
AMIGA_INT   0/1
AMIGA_PROG   0/20
AMIGA_SYSOP   0/26
ANIME   0/15
ARGUS   0/924
ASCII_ART   0/340
ASIAN_LINK   0/651
ASTRONOMY   0/417
AUDIO   0/92
AUTOMOBILE_RACING   0/105
BABYLON5   0/17862
BAG   135
BATPOWER   0/361
BBBS.ENGLISH   0/382
BBSLAW   0/109
BBS_ADS   0/5290
BBS_INTERNET   0/507
BIBLE   0/3563
BINKD   0/1119
BINKLEY   0/215
BLUEWAVE   0/2173
CABLE_MODEMS   0/25
CBM   0/46
CDRECORD   0/66
CDROM   0/20
CLASSIC_COMPUTER   0/378
COMICS   0/15
CONSPRCY   0/899
COOKING   39891
COOKING_OLD1   0/24719
COOKING_OLD2   0/40862
COOKING_OLD3   0/37489
COOKING_OLD4   0/35496
COOKING_OLD5   9370
C_ECHO   0/189
C_PLUSPLUS   0/31
DIRTY_DOZEN   0/201
DOORGAMES   0/2155
DOS_INTERNET   0/196
duplikat   6102
ECHOLIST   0/18295
EC_SUPPORT   0/318
ELECTRONICS   0/359
ELEKTRONIK.GER   1534
ENET.LINGUISTIC   0/13
ENET.POLITICS   0/4
ENET.SOFT   0/11701
ENET.SYSOP   34210
ENET.TALKS   0/32
ENGLISH_TUTOR   0/2000
EVOLUTION   0/1335
FDECHO   0/217
FDN_ANNOUNCE   0/7068
FIDONEWS   24749
FIDONEWS_OLD1   0/49742
FIDONEWS_OLD2   0/35949
FIDONEWS_OLD3   0/30874
FIDONEWS_OLD4   0/37224
FIDO_SYSOP   12913
FIDO_UTIL   0/180
FILEFIND   0/209
FILEGATE   0/212
Möte HAM, 16388 texter
 lista första sista föregående nästa
Text 4488, 908 rader
Skriven 2011-05-13 02:37:48 av Amsat List (1:323/120.0)
Ärende: [keps]  orb11133.amsa
=============================
[keps]  orb11133.amsa

Return-Path: <keps-bounces@amsat.org>
X-Rcpt: craig.healy@chowda.com
X-UIDL: 1305268585.2492

SB KEPS @ AMSAT  $ORB11133.O
Orbital Elements  11133.OSCAR

HR AMSAT ORBITAL ELEMENTS FOR OSCAR SATELLITES
FROM WA5QGD FORT WORTH,TX May 13, 2011
Send Subscribe/unsubscribe to KEPS at http://www.amsat.org/mailman/listinfo/kep
BID: ORB11133.O
TO ALL RADIO AMATEURS BT

Satellite: AO-07
Catalog number: 07530
Epoch time:      11131.60494609
Element set:    0076
Inclination:      101.3927 deg
RA of node:       139.5898 deg
Eccentricity:    0.0011947
Arg of perigee:   352.4762 deg
Mean anomaly:     007.6120 deg
Mean motion:   12.53582305 rev/day
Decay rate:       -2.7e-07 rev/day^2
Epoch rev:           66960
Checksum:              295

Satellite: FO-29
Catalog number: 24278
Epoch time:      11131.96727271
Element set:    0581
Inclination:      098.5414 deg
RA of node:       280.9816 deg
Eccentricity:    0.0350568
Arg of perigee:   351.2524 deg
Mean anomaly:     008.2607 deg
Mean motion:   13.52960168 rev/day
Decay rate:       -3.8e-07 rev/day^2
Epoch rev:           72756
Checksum:              324

Satellite: SO-33
Catalog number: 25509
Epoch time:      11131.26221889
Element set:    0965
Inclination:      031.4343 deg
RA of node:       093.1521 deg
Eccentricity:    0.0354334
Arg of perigee:   278.6682 deg
Mean anomaly:     077.3961 deg
Mean motion:   14.28396261 rev/day
Decay rate:       4.21e-06 rev/day^2
Epoch rev:           65499
Checksum:              317

Satellite: RS-22
Catalog number: 27939
Epoch time:      11132.80921478
Element set:     250
Inclination:      097.8508 deg
RA of node:       348.4916 deg
Eccentricity:    0.0014667
Arg of perigee:   095.8825 deg
Mean anomaly:     264.4056 deg
Mean motion:   14.63577269 rev/day
Decay rate:       3.55e-06 rev/day^2
Epoch rev:           40716
Checksum:              339

Satellite: VO-52
Catalog number: 28650
Epoch time:      11131.63690820
Element set:    0792
Inclination:      097.6442 deg
RA of node:       176.3977 deg
Eccentricity:    0.0025732
Arg of perigee:   282.4674 deg
Mean anomaly:     077.3657 deg
Mean motion:   14.82046018 rev/day
Decay rate:       9.16e-06 rev/day^2
Epoch rev:           32533
Checksum:              322

Satellite: SO-67
Catalog number: 35870
Epoch time:      11132.82225693
Element set:     830
Inclination:      097.2836 deg
RA of node:       177.3559 deg
Eccentricity:    0.0003405
Arg of perigee:   125.0788 deg
Mean anomaly:     353.4457 deg
Mean motion:   15.20677605 rev/day
Decay rate:      2.027e-05 rev/day^2
Epoch rev:            9156
Checksum:              318

Satellite: HO-68
Catalog number: 36122
Epoch time:      11132.74298612
Element set:     365
Inclination:      100.4169 deg
RA of node:       194.0851 deg
Eccentricity:    0.0007149
Arg of perigee:   306.8565 deg
Mean anomaly:     053.1899 deg
Mean motion:   13.16286034 rev/day
Decay rate:       -4.5e-07 rev/day^2
Epoch rev:            6757
Checksum:              307

/EX
SB KEPS @ AMSAT  $ORB11133.D
Orbital Elements  11133.MICROS

HR AMSAT ORBITAL ELEMENTS FOR THE MICROSATS
FROM WA5QGD FORT WORTH,TX May 13, 2011
Send Subscribe/unsubscribe to KEPS at http://www.amsat.org/mailman/listinfo/kep
BID: ORB11133.D
TO ALL RADIO AMATEURS BT

Satellite: UO-11
Catalog number: 14781
Epoch time:      11132.71141300
Element set:     546
Inclination:      098.0060 deg
RA of node:       189.5271 deg
Eccentricity:    0.0007986
Arg of perigee:   252.5378 deg
Mean anomaly:     107.4958 deg
Mean motion:   14.79962320 rev/day
Decay rate:       2.24e-06 rev/day^2
Epoch rev:           46054
Checksum:              295

Satellite: AO-16
Catalog number: 20439
Epoch time:      11132.45490121
Element set:     185
Inclination:      098.3814 deg
RA of node:       083.2726 deg
Eccentricity:    0.0010023
Arg of perigee:   271.6670 deg
Mean anomaly:     088.3365 deg
Mean motion:   14.31918157 rev/day
Decay rate:       1.20e-06 rev/day^2
Epoch rev:           11250
Checksum:              264

Satellite: LO-19
Catalog number: 20442
Epoch time:      11132.88932055
Element set:      98
Inclination:      098.3437 deg
RA of node:       088.1804 deg
Eccentricity:    0.0010892
Arg of perigee:   262.2555 deg
Mean anomaly:     097.7387 deg
Mean motion:   14.32144362 rev/day
Decay rate:       1.23e-06 rev/day^2
Epoch rev:           11274
Checksum:              299

Satellite: AO-27
Catalog number: 22825
Epoch time:      11132.86937185
Element set:     815
Inclination:      098.5292 deg
RA of node:       078.0553 deg
Eccentricity:    0.0009046
Arg of perigee:   024.5592 deg
Mean anomaly:     335.6010 deg
Mean motion:   14.29345719 rev/day
Decay rate:       1.16e-06 rev/day^2
Epoch rev:           91914
Checksum:              311

Satellite: IO-26
Catalog number: 22826
Epoch time:      11132.87528532
Element set:     558
Inclination:      098.5236 deg
RA of node:       078.5473 deg
Eccentricity:    0.0009573
Arg of perigee:   018.5505 deg
Mean anomaly:     341.6021 deg
Mean motion:   14.29607403 rev/day
Decay rate:       1.06e-06 rev/day^2
Epoch rev:           91926
Checksum:              306

Satellite: GO-32
Catalog number: 25397
Epoch time:      11132.40865206
Element set:     477
Inclination:      098.3246 deg
RA of node:       126.8875 deg
Eccentricity:    0.0001972
Arg of perigee:   049.1244 deg
Mean anomaly:     311.0112 deg
Mean motion:   14.23206669 rev/day
Decay rate:      -1.13e-06 rev/day^2
Epoch rev:           66687
Checksum:              297

